Location: Carrières
(48.9495°N, 2.0407°E)
Time: 14:59:49
(UTC+00:00)

SR - Pass Details

Date: 18 April 2024
Orbit: 579 x 860 km, 66.7° (Epoch: 22 May)

Event Time Altitude Azimuth Distance (km) Brightness Sun altitude
Exits shadow 03:16:19 22° 250° (WSW) 1,668 ? -15.0°
Maximum altitude 03:19:31 46° 313° (NW) 1,014 ? -14.6°
Drops below altitude 10° 03:24:24 10° 27° (NNE) 2,212 ? -14.0°
Sets 03:26:46 0° 34° (NNE) 3,088 ? -13.7°
